[[{"header":{"parameterUnit":"m.s-1","parameterCategory":1,"la1":30.2991,"la2":30.254,"lo1":-89.0895,"lo2":-89.0444,"dy":0.0017,"dx":0.0017,"nx":28,"ny":28,"refTime":"2025-06-06T09:00:00:Z","depth":0,"parameterNumber":2,"parameterNumberName":"U-component_of_WINDS"},"data":[0,0,0,0,0,0,0,0,0,0,0,0,0,0,0,0,0,0,0,0,0,0,0,0,0,0,0,0,0,0,0,0,0,0,0,0,0,0,0,0,0,0,0,0,0,0,0,0,0,0,0,0,0,0,0,0,0,0,5.9295,5.9296,0,5.944,5.9442,5.9444,5.9387,5.9384,5.9381,5.9377,5.9525,5.9532,5.9539,0,0,0,0,0,0,0,0,0,0,0,0,0,5.8964,5.8971,5.9295,5.9297,5.9298,5.944,5.9442,5.9444,5.9388,5.9384,5.938,5.9376,5.9523,5.9531,5.954,0,0,0,0,0,0,0,0,0,0,0,0,0,5.9109,5.8973,5.9294,5.9287,5.9288,5.944,5.9442,5.9445,5.9389,5.9384,5.9379,5.9374,5.952,5.953,5.9541,5.9707,0,0,5.9573,5.9578,0,0,0,0,0,0,0,0,5.9101,5.9121,5.9287,5.9288,5.9289,5.9391,5.938,5.9533,5.939,5.9351,5.9377,5.9371,5.9484,5.9498,5.9536,5.9714,5.9721,5.9574,5.9581,5.9585,5.9588,0,0,0,0,0,0,0,5.9091,5.9114,5.9352,5.9289,5.9291,5.9276,5.9291,5.9409,5.9444,5.9354,5.935,5.9368,5.9484,5.9526,5.9539,5.9723,5.9574,5.9583,5.959,5.9594,6.004,6.0046,0,0,0,0,0,0,5.9081,5.9106,5.9348,5.9357,5.9181,5.9286,5.9303,5.9363,5.9443,5.945,5.9372,5.9365,5.951,5.9527,5.9544,5.974,5.9585,5.9595,5.9601,6.0035,6.0042,6.0048,0,0,0,0,0,0,5.9074,5.9103,5.9342,5.9231,5.926,5.9297,5.9365,5.9369,5.941,5.9457,5.9462,5.9408,5.9507,5.9529,5.9666,5.9745,5.96,5.9609,6.0029,6.0037,6.0045,6.0137,0,0,0,0,0,0,5.9065,5.9101,5.9165,5.9233,5.9266,5.9463,5.937,5.9375,5.9429,5.9421,5.9492,5.9499,5.9505,5.9651,5.9677,5.9757,5.9618,6.0022,6.0032,6.0042,6.0127,6.0148,6.0165,0,0,0,0,0,5.9053,5.9186,5.9169,5.9198,5.9348,5.9468,5.9487,5.9491,5.9436,5.95,5.9529,5.9497,5.9733,5.9665,5.9694,5.9779,6.0017,6.0029,6.0041,6.0119,6.0144,6.0165,0,0,0,0,0,0,5.9127,5.9195,5.9176,5.9336,5.9396,5.9458,5.9539,5.9518,5.9595,5.9584,5.9585,5.9602,5.9742,5.9775,5.9698,5.9942,5.9866,5.9885,5.9915,5.9939,5.9958,5.9945,5.9627,0,0,0,0,0,5.9162,5.9255,5.9309,5.9444,5.9475,5.9502,5.9555,5.9552,5.9615,5.964,5.968,5.9741,5.9828,5.9886,5.997,6.0133,6.0145,6.0205,6.0224,6.0239,6.0254,6.0338,6.0364,6.0088,6.0088,6.0088,0,0,5.9235,5.9284,5.9342,5.946,5.9507,5.96,5.9524,5.9628,5.9697,5.9656,5.9787,5.9818,5.9886,6.0036,6.0104,6.0067,6.0333,6.0255,6.0267,6.0273,6.0354,6.038,6.0403,6.0097,6.0095,6.0094,0,0,5.9415,5.9463,5.9579,5.9627,5.9698,5.9715,5.9743,5.9808,5.9827,5.9958,5.9928,6.001,6.0162,6.0211,6.0256,6.0452,6.0424,6.0479,6.0577,6.0659,6.0681,6.07,6.0766,6.079,6.0495,6.0495,6.0495,0,5.9497,5.9638,5.9641,5.9746,5.9797,5.9765,5.988,5.9927,6.0022,6.0057,6.0015,6.0203,6.0247,6.0405,6.0453,6.0492,6.0521,6.047,6.0678,6.0697,6.0715,6.0777,6.0803,6.0501,6.0501,6.05,6.0499,0,5.9732,5.9831,5.9916,6.0007,6.0068,6.0179,6.0196,6.0258,6.025,6.0271,6.0403,6.0455,6.0546,6.0584,6.0579,6.0741,6.0716,6.0676,6.0599,6.0747,6.0806,6.083,6.051,6.0508,6.0506,6.0504,0,0,5.9963,6.0053,6.0084,6.0123,6.0199,6.0275,6.0382,6.0472,6.0522,6.0589,6.0677,6.0805,6.0768,6.0819,6.0818,6.0891,6.1037,6.0841,6.0843,6.0872,6.1215,6.1242,6.127,6.1021,6.1025,6.1029,6.1208,0,6.0145,6.0334,6.0339,6.0511,6.0599,6.0569,6.0662,6.0718,6.074,6.0817,6.0841,6.093,6.0877,6.0906,6.0977,6.1005,6.1106,6.0992,6.1099,6.1103,6.1079,6.1301,6.1331,6.1497,6.1231,6.1235,6.1238,0,6.0384,6.0456,6.0637,6.0697,6.0734,6.0818,6.0898,6.0974,6.1035,6.1046,6.1101,6.1089,6.1196,6.1119,6.1265,6.1187,6.1232,6.1252,6.1258,6.1265,6.1177,6.131,6.1551,6.1574,6.1275,6.1272,6.127,0,6.0528,6.0672,6.0797,6.0833,6.0907,6.0965,6.0999,6.1056,6.1108,6.1178,6.1211,6.1294,6.1338,6.1401,6.1411,6.1354,6.1556,6.148,6.1565,6.1565,6.1606,6.1603,6.1852,6.1642,6.1641,6.1641,6.164,0,6.0729,6.084,6.0862,6.0939,6.1061,6.1066,6.1186,6.1215,6.1265,6.1345,6.1325,6.1401,6.141,6.1488,6.1496,6.1613,6.1635,6.1644,6.1644,6.1644,6.1642,6.167,6.1657,6.1647,6.1646,6.1645,6.1643,0,6.091,6.093,6.1064,6.1123,6.114,6.1227,6.1276,6.1349,6.1368,6.147,6.1494,6.1525,6.1615,6.1631,6.1738,6.1743,6.1881,6.1872,6.186,6.1858,6.194,6.1931,6.2214,6.2249,6.2019,6.2021,6.2023,0,6.1035,6.1119,6.1187,6.1239,6.1275,6.136,6.1413,6.142,6.1475,6.155,6.1613,6.1701,6.1771,6.1916,6.1947,6.2027,6.2017,6.2111,6.2029,6.2024,6.2013,6.2006,6.2013,6.2125,6.2128,6.213,6.2131,0,6.1254,6.1259,6.1336,6.1416,6.148,6.1543,6.1603,6.1647,6.1662,6.1725,6.1817,6.1871,6.1979,6.2065,6.2145,6.2178,6.2156,6.2157,6.218,6.2179,6.2167,6.217,6.1899,6.215,6.2148,6.2147,6.2146,6.2145,6.1408,6.148,6.1537,6.1623,6.1669,6.1725,6.1794,6.1822,6.1899,6.1987,6.1987,6.2086,6.2142,6.2247,6.2285,6.2361,6.2331,6.2366,6.2374,6.2381,6.2387,6.2158,6.2377,6.2376,6.2376,6.2375,6.2375,0,6.1622,6.1657,6.1736,6.182,6.1886,6.1862,6.1926,6.1983,6.2071,6.2126,6.2195,6.2298,6.2381,6.2418,6.2499,6.2553,6.2545,6.2574,6.2568,6.2575,6.2411,6.2381,6.2578,6.2578,6.2578,6.2578,6.2578,6.2578,6.174,6.1859,6.1871,6.2011,6.2045,6.2142,6.218,6.2231,6.2274,6.2391,6.2459,6.2483,6.253,6.2614,6.2688,6.2696,6.2725,6.2758,6.2762,6.2608,6.2587,6.2567,6.2538,6.2765,6.2766,6.2918,6.2919,6.292]},{"header":{"parameterUnit":"m.s-1","parameterCategory":1,"la1":30.2991,"la2":30.254,"lo1":-89.0895,"lo2":-89.0444,"dy":0.0017,"dx":0.0017,"nx":28,"ny":28,"refTime":"2025-06-06T09:00:00:Z","depth":0,"parameterNumber":3,"parameterNumberName":"V-component_of_WINDS"},"data":[0,0,0,0,0,0,0,0,0,0,0,0,0,0,0,0,0,0,0,0,0,0,0,0,0,0,0,0,0,0,0,0,0,0,0,0,0,0,0,0,0,0,0,0,0,0,0,0,0,0,0,0,0,0,0,0,0,0,4.6432,4.6433,0,4.6545,4.6546,4.6547,4.6515,4.6513,4.6511,4.6508,4.662,4.6625,4.663,0,0,0,0,0,0,0,0,0,0,0,0,0,4.6185,4.619,4.6432,4.6434,4.6435,4.6544,4.6546,4.6548,4.6516,4.6513,4.651,4.6507,4.6619,4.6625,4.6631,0,0,0,0,0,0,0,0,0,0,0,0,0,4.6294,4.6191,4.6432,4.6432,4.6433,4.6544,4.6546,4.6548,4.6516,4.6513,4.6509,4.6506,4.6617,4.6624,4.6632,4.6748,0,0,4.6655,4.6658,0,0,0,0,0,0,0,0,4.6288,4.6303,4.6431,4.6432,4.6434,4.6512,4.65,4.6615,4.6517,4.6485,4.6508,4.6504,4.6587,4.6597,4.6625,4.6753,4.6758,4.6656,4.666,4.6664,4.6666,0,0,0,0,0,0,0,4.6281,4.6298,4.6476,4.6433,4.6435,4.6425,4.6437,4.6521,4.6554,4.6487,4.6485,4.6499,4.6587,4.6618,4.6628,4.6759,4.6656,4.6662,4.6667,4.667,4.6985,4.6989,0,0,0,0,0,0,4.6272,4.6292,4.6473,4.648,4.6351,4.6432,4.6446,4.6491,4.6553,4.6559,4.6502,4.6497,4.6607,4.6619,4.6632,4.677,4.6664,4.6671,4.6675,4.6982,4.6986,4.699,0,0,0,0,0,0,4.6267,4.6289,4.6468,4.6386,4.6408,4.644,4.6491,4.6495,4.6526,4.6564,4.6569,4.6528,4.6604,4.6621,4.6719,4.6774,4.6674,4.6681,4.6977,4.6983,4.6988,4.705,0,0,0,0,0,0,4.626,4.6287,4.6333,4.6387,4.6412,4.6556,4.6495,4.6499,4.6539,4.6534,4.659,4.6595,4.6603,4.6708,4.6726,4.6783,4.6687,4.6972,4.698,4.6987,4.7043,4.7057,4.7069,0,0,0,0,0,4.6252,4.6345,4.6335,4.6357,4.647,4.6559,4.6573,4.6581,4.6544,4.6589,4.6613,4.6594,4.6765,4.6718,4.6739,4.6798,4.6969,4.6978,4.6986,4.7037,4.7054,4.7068,0,0,0,0,0,0,4.6296,4.6353,4.6342,4.6457,4.6503,4.6553,4.6611,4.6599,4.6656,4.6649,4.6655,4.6668,4.6768,4.6793,4.6739,4.6913,4.6861,4.6874,4.6893,4.6909,4.6922,4.6913,4.6694,0,0,0,0,0,4.632,4.6388,4.6433,4.6529,4.6553,4.6578,4.6617,4.6619,4.6667,4.6686,4.6718,4.6764,4.6828,4.687,4.6931,4.7046,4.7057,4.7097,4.711,4.712,4.7131,4.7192,4.721,4.7018,4.7018,4.7018,0,0,4.6368,4.6407,4.645,4.6539,4.6576,4.6645,4.6595,4.6671,4.6721,4.6697,4.6792,4.6816,4.6868,4.6975,4.7023,4.6999,4.7186,4.7131,4.7139,4.7145,4.7203,4.7221,4.7237,4.7024,4.7023,4.7022,0,0,4.6492,4.653,4.6613,4.6651,4.6706,4.6722,4.6742,4.6794,4.6809,4.6904,4.6887,4.6947,4.7057,4.7095,4.7128,4.7264,4.7247,4.7283,4.7351,4.741,4.7425,4.7438,4.7485,4.7502,4.7294,4.7295,4.7295,0,4.6546,4.665,4.6658,4.6735,4.6773,4.6755,4.6839,4.6874,4.6947,4.6973,4.6945,4.7082,4.7116,4.723,4.7263,4.7291,4.7313,4.7277,4.7422,4.7436,4.7448,4.7493,4.7511,4.7299,4.7298,4.7298,4.7297,0,4.6712,4.6785,4.6846,4.6917,4.6962,4.7042,4.706,4.7105,4.7102,4.712,4.7216,4.7256,4.7324,4.7351,4.7349,4.7464,4.7447,4.7421,4.7369,4.7471,4.7513,4.753,4.7304,4.7303,4.7302,4.7301,0,0,4.6868,4.6942,4.6964,4.6995,4.7054,4.711,4.7188,4.7255,4.7293,4.7343,4.7408,4.7501,4.7476,4.7514,4.7516,4.7568,4.7671,4.7534,4.7536,4.7558,4.7799,4.7818,4.7838,4.766,4.7664,4.7666,4.7794,0,4.6997,4.7136,4.7143,4.7269,4.7335,4.7318,4.7385,4.7428,4.7446,4.7504,4.7523,4.7589,4.7552,4.7574,4.7625,4.7648,4.7719,4.7639,4.7719,4.7721,4.7706,4.786,4.7881,4.8,4.7811,4.7813,4.7816,0,4.7165,4.7221,4.7353,4.7401,4.7429,4.749,4.7552,4.7608,4.7655,4.7664,4.7706,4.77,4.7778,4.7723,4.783,4.7775,4.7807,4.7823,4.7828,4.7835,4.7774,4.7871,4.8038,4.8056,4.7842,4.784,4.7838,0,4.7264,4.7372,4.7465,4.7492,4.7552,4.7594,4.7621,4.7665,4.7704,4.7757,4.7782,4.7843,4.7877,4.7923,4.7933,4.7893,4.8039,4.7986,4.8047,4.8047,4.8079,4.8077,4.8253,4.8101,4.8101,4.8101,4.81,0,4.7406,4.7487,4.751,4.7567,4.7656,4.7664,4.7752,4.7775,4.7814,4.7874,4.7862,4.7918,4.7928,4.7985,4.7993,4.8079,4.8094,4.8103,4.8104,4.8104,4.8103,4.8125,4.8117,4.8105,4.8104,4.8103,4.8103,0,4.7532,4.7551,4.765,4.7698,4.7712,4.7776,4.7816,4.7869,4.7886,4.7961,4.7979,4.8005,4.8072,4.8086,4.8166,4.8171,4.8273,4.8266,4.8257,4.8256,4.8317,4.831,4.8513,4.854,4.8371,4.8373,4.8374,0,4.7622,4.7684,4.7738,4.7778,4.7806,4.787,4.791,4.7919,4.7961,4.8018,4.8065,4.813,4.8184,4.8291,4.8316,4.8376,4.837,4.8437,4.8379,4.8376,4.8369,4.8365,4.8371,4.8447,4.8449,4.8451,4.8452,0,4.7777,4.7783,4.7842,4.7904,4.7952,4.8001,4.8048,4.808,4.8095,4.8142,4.8211,4.8252,4.8333,4.8398,4.8458,4.8483,4.847,4.847,4.8487,4.8487,4.8479,4.8483,4.8286,4.8465,4.8464,4.8463,4.8462,4.8462,4.7887,4.7941,4.7987,4.8052,4.8088,4.8132,4.8184,4.8207,4.8265,4.8332,4.8333,4.8408,4.8451,4.8531,4.8559,4.8617,4.8596,4.8621,4.8627,4.8633,4.8638,4.8471,4.8628,4.8627,4.8627,4.8627,4.8626,0,4.8041,4.807,4.813,4.8196,4.8247,4.823,4.828,4.8324,4.839,4.8432,4.8485,4.8563,4.8625,4.8655,4.8716,4.8756,4.8751,4.8771,4.8768,4.8774,4.8654,4.8633,4.8774,4.8774,4.8774,4.8774,4.8774,4.8774,4.8127,4.8217,4.8228,4.8334,4.8362,4.8436,4.8466,4.8505,4.8539,4.8627,4.8679,4.8698,4.8734,4.8798,4.8854,4.8861,4.8883,4.8906,4.891,4.8798,4.8783,4.8768,4.8748,4.8912,4.8912,4.9025,4.9026,4.9027]}]]